FW4117 Weather Reports


Display with metric or nautical units.
time (UTC)temp
F
wind
direction
speed
MPH
gust
MPH
rain 1hr
in
rain 24hr
in
rain mn
in
humidity
%
barometer
mb
20260505041503 76 120 6.0 15.0 0.00 0.00 0.00 72 1005.0
20260505041003 76 117 6.0 13.0 0.00 0.00 0.00 72 1004.9
20260505040503 76 120 6.0 17.0 0.00 0.00 0.00 72 1004.9
20260505040003 76 127 7.0 17.0 0.00 0.00 0.00 72 1004.9
20260505035503 76 135 6.0 12.0 0.00 0.00 0.00 72 1004.9
20260505035003 76 134 5.0 14.0 0.00 0.00 0.00 72 1004.9
20260505034503 76 125 6.0 14.0 0.00 0.00 0.00 73 1005.0
20260505034003 76 122 6.0 13.0 0.00 0.00 0.00 73 1005.0
20260505033503 76 121 5.0 17.0 0.00 0.00 0.00 73 1004.8
20260505033003 76 121 6.0 17.0 0.00 0.00 0.00 72 1004.9
20260505032503 76 122 7.0 17.0 0.00 0.00 0.00 73 1005.0
20260505032003 76 121 6.0 11.0 0.00 0.00 0.00 72 1004.8
20260505031503 76 121 5.0 12.0 0.00 0.00 0.00 72 1004.7
20260505031214 76 120 5.0 12.0 0.00 0.00 0.00 72 1004.8
20260505030503 76 117 5.0 11.0 0.00 0.00 0.00 72 1004.8
20260505030003 76 125 5.0 11.0 0.00 0.00 0.00 72 1004.9
20260505025712 76 128 5.0 11.0 0.00 0.00 0.00 72 1004.9
20260505025003 76 130 5.0 11.0 0.00 0.00 0.00 72 1005.1
20260505024503 76 125 5.0 16.0 0.00 0.00 0.00 72 1005.0
20260505024003 76 123 5.0 16.0 0.00 0.00 0.00 72 1005.0
20260505023712 76 128 5.0 16.0 0.00 0.00 0.00 72 1005.0
20260505023003 76 125 5.0 11.0 0.00 0.00 0.00 72 1005.0
20260505022503 76 125 5.0 11.0 0.00 0.00 0.00 72 1004.9
20260505022003 76 125 5.0 10.0 0.00 0.00 0.00 72 1005.0
20260505021503 76 115 5.0 12.0 0.00 0.00 0.00 72 1004.9
20260505021003 76 115 5.0 12.0 0.00 0.00 0.00 71 1004.8
20260505020503 76 125 5.0 11.0 0.00 0.00 0.00 71 1004.7
20260505020213 76 125 5.0 11.0 0.00 0.00 0.00 71 1004.9
20260505015712 76 123 5.0 12.0 0.00 0.00 0.00 71 1004.8
20260505015003 76 124 4.0 10.0 0.00 0.00 0.00 71 1005.0
20260505014503 76 121 5.0 13.0 0.00 0.00 0.00 71 1005.0
20260505014003 77 121 5.0 13.0 0.00 0.00 0.00 70 1004.9
20260505013503 77 121 4.0 10.0 0.00 0.00 0.00 70 1004.9
20260505013003 77 127 4.0 10.0 0.00 0.00 0.00 70 1004.9
20260505012503 77 126 5.0 13.0 0.00 0.00 0.00 70 1004.9
20260505012213 77 124 5.0 13.0 0.00 0.00 0.00 69 1004.9
20260505011503 77 126 5.0 12.0 0.00 0.00 0.00 69 1004.7
20260505011003 77 123 6.0 18.0 0.00 0.00 0.00 68 1004.8
20260505010503 78 124 6.0 18.0 0.00 0.00 0.00 68 1004.9
20260505010003 78 128 5.0 13.0 0.00 0.00 0.00 68 1004.9
20260505005714 78 130 5.0 11.0 0.00 0.00 0.00 67 1004.9
20260505005003 78 128 6.0 15.0 0.00 0.00 0.00 67 1005.0
20260505004503 78 127 6.0 15.0 0.00 0.00 0.00 66 1005.0
20260505004003 78 129 5.0 13.0 0.00 0.00 0.00 66 1004.9
20260505003503 79 131 5.0 14.0 0.00 0.00 0.00 67 1004.9
20260505003003 79 128 5.0 14.0 0.00 0.00 0.00 66 1004.9
20260505002503 79 121 5.0 10.0 0.00 0.00 0.00 66 1004.9
20260505002003 79 119 6.0 15.0 0.00 0.00 0.00 66 1005.0
20260505001713 79 121 6.0 15.0 0.00 0.00 0.00 65 1005.0
20260505001212 80 117 6.0 12.0 0.00 0.00 0.00 65 1005.0
20260505000503 80 124 7.0 18.0 0.00 0.00 0.00 65 1005.0
20260505000003 80 135 7.0 18.0 0.00 0.00 0.00 64 1005.1
20260504235503 80 136 6.0 14.0 0.00 0.00 0.00 63 1005.2
20260504235003 80 130 7.0 16.0 0.00 0.00 0.00 63 1005.2
20260504234713 80 127 7.0 16.0 0.00 0.00 0.00 63 1005.2
20260504234003 80 127 6.0 14.0 0.00 0.00 0.00 62 1005.1
20260504233503 81 127 7.0 16.0 0.00 0.00 0.00 62 1005.2
20260504233003 81 132 7.0 18.0 0.00 0.00 0.00 62 1005.3
20260504232503 81 133 7.0 18.0 0.00 0.00 0.00 61 1005.4
20260504232003 81 124 7.0 14.0 0.00 0.00 0.00 61 1005.4
20260504231503 81 119 7.0 17.0 0.00 0.00 0.00 61 1005.3
20260504231003 81 125 7.0 17.0 0.00 0.00 0.00 61 1005.4
20260504230503 81 126 8.0 17.0 0.00 0.00 0.00 61 1005.3
20260504230003 81 125 8.0 17.0 0.00 0.00 0.00 61 1005.3
20260504225503 82 128 7.0 16.0 0.00 0.00 0.00 60 1005.4
20260504225003 82 139 6.0 15.0 0.00 0.00 0.00 60 1005.5
20260504224503 83 133 7.0 18.0 0.00 0.00 0.00 60 1005.6
20260504224214 82 135 7.0 18.0 0.00 0.00 0.00 60 1005.7
20260504223503 83 139 8.0 15.0 0.00 0.00 0.00 59 1005.6
20260504223003 83 128 8.0 15.0 0.00 0.00 0.00 58 1005.6
20260504222503 83 123 8.0 15.0 0.00 0.00 0.00 58 1005.6
20260504222003 84 136 7.0 13.0 0.00 0.00 0.00 58 1005.6
20260504221503 84 132 7.0 22.0 0.00 0.00 0.00 59 1005.7
20260504221003 83 129 7.0 22.0 0.00 0.00 0.00 58 1005.8
20260504220503 83 136 6.0 13.0 0.00 0.00 0.00 58 1005.8
20260504220003 83 129 7.0 17.0 0.00 0.00 0.00 58 1005.9
20260504215503 83 126 7.0 18.0 0.00 0.00 0.00 57 1005.9
20260504215003 83 130 7.0 18.0 0.00 0.00 0.00 58 1005.8
20260504214503 83 139 6.0 14.0 0.00 0.00 0.00 57 1006.0
20260504214003 84 143 6.0 14.0 0.00 0.00 0.00 57 1006.0
20260504213503 83 128 8.0 19.0 0.00 0.00 0.00 58 1006.1
20260504213003 83 122 9.0 19.0 0.00 0.00 0.00 57 1006.1
20260504212503 84 127 7.0 19.0 0.00 0.00 0.00 57 1006.2
20260504212003 84 132 5.0 11.0 0.00 0.00 0.00 57 1006.4
20260504211503 85 139 5.0 13.0 0.00 0.00 0.00 56 1006.5
20260504211003 85 139 5.0 13.0 0.00 0.00 0.00 55 1006.4
20260504210503 84 131 7.0 16.0 0.00 0.00 0.00 58 1006.4
20260504210003 84 132 8.0 16.0 0.00 0.00 0.00 57 1006.6
20260504205503 84 134 7.0 17.0 0.00 0.00 0.00 57 1006.6
20260504205003 84 132 7.0 17.0 0.00 0.00 0.00 57 1006.8
20260504204503 83 130 7.0 14.0 0.00 0.00 0.00 57 1006.8
20260504204003 84 128 7.0 15.0 0.00 0.00 0.00 57 1007.0
20260504203503 84 125 6.0 15.0 0.00 0.00 0.00 56 1007.0
20260504203003 84 127 6.0 18.0 0.00 0.00 0.00 58 1007.1
20260504202503 83 134 7.0 18.0 0.00 0.00 0.00 57 1007.2
20260504202003 83 136 7.0 17.0 0.00 0.00 0.00 57 1007.4
20260504201503 83 129 7.0 16.0 0.00 0.00 0.00 58 1007.4
20260504201213 83 127 7.0 18.0 0.00 0.00 0.00 58 1007.6
20260504200503 82 136 8.0 18.0 0.00 0.00 0.00 58 1007.8
20260504200003 82 142 8.0 16.0 0.00 0.00 0.00 58 1007.9
20260504195714 82 137 8.0 15.0 0.00 0.00 0.00 57 1008.0
20260504195003 82 138 7.0 15.0 0.00 0.00 0.00 57 1008.2
20260504194503 83 139 7.0 14.0 0.00 0.00 0.00 57 1008.3
20260504194003 82 141 7.0 14.0 0.00 0.00 0.00 57 1008.4
20260504193503 82 135 6.0 15.0 0.00 0.00 0.00 57 1008.5
20260504193003 83 125 6.0 15.0 0.00 0.00 0.00 57 1008.5
20260504192503 83 135 5.0 12.0 0.00 0.00 0.00 58 1008.4
20260504192003 82 137 6.0 12.0 0.00 0.00 0.00 56 1008.4
20260504191714 82 133 6.0 12.0 0.00 0.00 0.00 57 1008.5
20260504191003 82 138 7.0 14.0 0.00 0.00 0.00 59 1008.6
20260504190503 81 133 8.0 18.0 0.00 0.00 0.00 58 1008.7
20260504190212 81 125 8.0 18.0 0.00 0.00 0.00 58 1008.8
20260504185503 82 122 7.0 14.0 0.00 0.00 0.00 58 1009.0
20260504185003 81 126 8.0 16.0 0.00 0.00 0.00 58 1009.1
20260504184503 82 137 6.0 16.0 0.00 0.00 0.00 56 1009.2
20260504184003 81 138 6.0 17.0 0.00 0.00 0.00 58 1009.2
20260504183503 81 136 6.0 17.0 0.00 0.00 0.00 57 1009.2
20260504183003 81 147 6.0 14.0 0.00 0.00 0.00 59 1009.3
20260504182503 81 159 6.0 14.0 0.00 0.00 0.00 58 1009.4
20260504182003 80 162 6.0 14.0 0.00 0.00 0.00 58 1009.5
20260504181503 81 153 6.0 14.0 0.00 0.00 0.00 58 1009.5
20260504181003 80 138 6.0 20.0 0.00 0.00 0.00 60 1009.6
20260504180713 80 139 7.0 20.0 0.00 0.00 0.00 58 1009.7
20260504180003 80 132 7.0 19.0 0.00 0.00 0.00 58 1009.9
20260504175503 80 127 6.0 15.0 0.00 0.00 0.00 59 1009.9
20260504175003 79 135 7.0 15.0 0.00 0.00 0.00 59 1010.1
20260504174503 79 135 6.0 14.0 0.00 0.00 0.00 61 1010.1
20260504174003 79 125 7.0 14.0 0.00 0.00 0.00 60 1010.5
20260504173503 79 122 6.0 13.0 0.00 0.00 0.00 60 1010.4
20260504173003 79 126 6.0 14.0 0.00 0.00 0.00 61 1010.5
20260504172503 78 127 6.0 14.0 0.00 0.00 0.00 60 1010.5
20260504172003 78 134 6.0 12.0 0.00 0.00 0.00 60 1010.5
20260504171503 78 142 6.0 15.0 0.00 0.00 0.00 61 1010.7
20260504171003 78 139 6.0 15.0 0.00 0.00 0.00 60 1010.8
20260504170503 78 123 6.0 13.0 0.00 0.00 0.00 60 1011.0
20260504151003 73 145 7.0 15.0 0.00 0.00 0.00 64 1011.8
20260504150503 73 138 7.0 14.0 0.00 0.00 0.00 64 1011.7
20260504141003 69 148 6.0 14.0 0.00 0.00 0.00 70 1011.9
20260504140714 69 151 6.0 14.0 0.00 0.00 0.00 71 1011.9
20260504140213 69 145 7.0 18.0 0.00 0.00 0.00 71 1012.1
20260504130503 65 134 4.0 10.0 0.00 0.00 0.00 75 1012.2
20260504110712 63 151 4.0 12.0 0.00 0.00 0.00 72 1011.9
20260504082003 65 135 2.0 6.0 0.00 0.00 0.00 64 1012.8
20260504081503 65 127 2.0 7.0 0.00 0.00 0.00 64 1012.8
20260504081003 65 131 3.0 11.0 0.00 0.00 0.00 63 1012.9
20260504080503 65 138 3.0 11.0 0.00 0.00 0.00 63 1013.0
20260504050503 68 135 1.0 4.0 0.00 0.00 0.00 58 1014.8
20260504050003 68 124 2.0 6.0 0.00 0.00 0.00 58 1014.9
20260504045503 68 129 2.0 6.0 0.00 0.00 0.00 58 1014.9
20260504045003 68 139 2.0 6.0 0.00 0.00 0.00 57 1015.0